Location: De Har
(53.3413°N, 6.6858°E)
Time: 08:17:53
(UTC+00:00)

Meteor 1-5 Rocket - Pass Details

Date: 22 April 2026
Orbit: 787 x 913 km, 81.2° (Epoch: 15 May)

Event Time Altitude Azimuth Distance (km) Brightness Sun altitude
Rises 00:12:14 0° 345° (NNW) 3,312 8.3 -24.0°
Reaches altitude 10° 00:14:35 10° 345° (NNW) 2,388 7.4 -23.9°
Maximum altitude 00:19:59 81° 259° (W) 832 4.0 -23.7°
Enters shadow 00:20:59 60° 185° (S) 935 4.0 -23.7°
